RH
47 47 46 44 43 41 40 38 34 31 30 29 30 31 34 38 41 42 44 45 46 47 46 46 46 46 45 47 47 47 48 48 49 49 48 48 46 45 46 52 66 83
47 47 45 44 43 42 40 38 35 32 30 30 30 32 35 40 42 43 44 45 45 46 46 46 45 46 46 48 49 48 49 49 48 49 48 47 46 43 41 43 55 75
47 47 45 44 43 42 41 39 36 33 31 32 32 33 36 39 41 43 44 44 45 46 46 46 46 46 48 49 50 50 50 51 51 51 52 52 51 47 44 45 51 61
47 46 45 44 44 43 42 39 36 34 33 33 34 35 36 38 41 43 44 45 45 46 46 46 46 47 49 50 51 52 52 52 53 53 54 55 55 51 48 52 56 59
46 46 45 44 44 43 42 40 37 35 34 34 35 36 37 39 41 42 44 45 45 46 46 47 48 49 51 52 52 53 54 54 54 55 57 58 58 55 52 55 61 67
47 46 45 45 45 44 42 41 38 35 35 35 36 37 38 39 41 42 44 45 46 46 47 47 49 50 52 53 54 54 55 56 56 58 59 60 60 58 57 58 63 68
47 46 46 45 45 44 43 41 39 36 36 36 37 37 39 40 41 42 44 45 46 46 47 49 50 52 53 54 55 56 57 58 59 60 62 63 63 63 63 64 66 68
47 46 46 46 45 45 44 42 40 37 36 37 37 38 39 40 41 42 44 46 46 47 49 50 52 53 54 55 57 58 59 60 62 63 64 65 66 67 67 68 71 73
48 47 46 46 46 45 45 43 40 38 37 37 37 38 39 40 41 43 45 46 47 49 50 51 53 54 55 57 58 59 61 63 64 66 67 68 70 70 70 71 72 73
49 48 47 47 46 46 45 43 41 39 37 37 38 38 39 40 42 44 46 48 49 50 51 52 53 54 56 58 59 61 63 65 67 68 69 70 71 71 71 71 71 70
50 49 48 47 47 46 45 44 42 39 38 38 38 38 40 41 43 45 47 49 50 50 51 53 54 55 57 59 61 63 65 68 69 70 72 73 73 74 73 70 69 68
51 50 49 48 47 46 45 44 42 40 39 38 38 39 40 42 43 46 47 48 49 50 51 53 54 56 58 60 63 66 68 70 72 73 74 75 74 73 71 67 67 69
51 50 49 48 48 47 46 45 43 40 39 38 38 39 41 42 44 46 47 48 49 51 52 54 55 58 60 63 66 68 70 72 74 76 76 75 74 73 71 70 71 76
51 51 50 49 49 48 47 45 43 41 39 38 39 40 41 43 44 46 47 49 50 52 54 55 58 61 63 66 68 70 73 76 75 74 73 74 76 79 79 79 82 87
54 53 52 51 50 49 47 46 43 41 39 38 39 40 42 44 45 47 49 50 52 54 56 59 61 64 66 68 71 73 74 74 73 75 79 84 87 89 89 86 86 89
56 55 53 52 51 49 48 45 43 41 39 39 40 42 44 46 48 50 51 53 55 56 59 63 65 67 69 71 73 75 75 77 82 89 93 96 96 94 90 85 83 87
58 56 54 53 51 49 47 45 42 41 39 40 42 44 47 48 50 53 54 56 58 59 62 65 67 70 72 74 80 88 90 92 97 100 100 100 99 97 93 91 91 92
59 57 55 53 51 48 46 44 41 40 40 43 45 47 49 51 53 56 57 58 60 63 66 68 71 75 74 77 90 100 101 100 101 102 101 100 100 97 94 93 95 94
58 57 54 52 50 47 45 43 41 42 43 45 47 49 52 55 57 58 59 61 64 66 70 72 75 77 75 80 96 103 100 100 101 101 101 101 99 96 93 93 93 95
57 56 53 51 49 46 44 42 42 44 46 48 50 54 57 59 60 61 62 65 67 69 73 76 78 77 73 78 94 101 100 100 100 100 100 100 99 99 98 96 94 95
55 54 51 49 47 44 44 44 45 48 50 53 56 58 60 60 60 62 65 68 71 75 78 79 78 75 71 78 94 101 100 100 100 100 101 100 100 101 100 97 97 98
53 51 49 47 45 45 47 48 50 52 54 57 60 61 62 63 63 65 68 71 75 79 81 79 77 74 72 83 99 103 99 101 101 100 101 99 97 96 95 94 94 94
50 47 45 45 46 48 50 52 54 57 59 61 63 65 66 67 68 71 73 76 79 81 80 78 77 73 71 80 97 103 100 100 100 99 100 98 94 93 92 91 90 91
45 44 44 46 49 51 55 57 59 62 64 66 68 69 70 71 73 75 78 80 81 81 80 78 77 75 70 74 90 102 101 100 100 99 98 96 93 92 91 89 89 91
45 48 52 55 59 62 64 67 68 69 71 72 73 74 75 74 76 78 80 82 81 80 81 80 79 78 72 72 86 101 102 100 101 100 97 95 93 91 90 88 88 87
59 64 68 71 73 75 75 75 76 77 77 78 78 77 78 78 79 80 82 82 82 82 83 83 82 81 76 74 86 102 103 99 101 101 99 99 98 96 93 91 89 87
Wind_Speed
38 36 33 31 28 24 21 18 16 14 13 13 12 12 11 11 10 10 10 11 11 11 11 10 10 10 9 9 9 9 9 9 9 9 10 10 10 11 11 11 11 10
40 38 35 32 29 26 23 20 17 16 14 13 12 11 12 12 12 12 11 12 12 12 12 12 11 11 10 10 10 9 9 9 9 9 10 10 11 11 11 11 11 11
41 39 37 35 32 29 26 22 19 17 15 14 13 12 13 13 13 13 13 13 13 13 13 13 12 12 12 12 11 11 10 10 10 10 10 11 11 12 12 12 12 12
43 41 39 37 34 31 27 24 21 19 18 16 14 13 13 14 14 14 14 14 15 14 14 14 13 13 13 13 12 12 11 11 11 11 11 12 12 12 12 12 12 13
44 43 41 38 35 31 28 25 24 22 20 18 15 14 15 15 15 16 16 16 16 16 15 15 15 14 14 14 14 13 13 13 12 12 13 13 13 13 13 13 13 14
43 43 41 39 36 32 30 28 25 24 22 19 17 16 16 16 17 17 17 18 18 17 17 16 16 16 15 15 15 15 14 14 14 13 14 14 14 13 13 14 14 15
43 43 42 40 37 34 32 29 27 25 23 20 18 18 17 18 18 18 18 19 18 18 18 18 17 17 17 17 16 16 16 15 15 14 15 14 14 14 14 15 16 17
44 43 42 41 39 36 34 31 29 27 24 22 20 19 19 19 19 19 19 19 19 19 19 19 19 18 18 18 17 17 17 16 16 15 15 15 14 15 15 16 17 18
43 43 43 42 40 39 36 34 32 29 26 24 22 20 20 20 20 20 20 20 20 20 20 20 20 20 19 19 19 18 18 17 16 16 15 15 15 16 17 18 19 20
43 43 43 43 42 41 39 36 34 31 28 25 23 21 20 21 21 21 21 21 21 21 21 22 21 21 21 20 20 19 19 18 17 16 16 16 17 18 18 19 20 22
43 43 43 44 43 42 40 38 35 32 29 26 24 22 22 21 22 22 22 22 22 22 22 23 22 22 22 21 20 20 19 19 17 17 17 18 18 19 20 21 22 23
43 43 44 45 44 43 41 39 36 33 30 27 25 23 23 23 23 23 23 23 23 23 23 23 23 22 22 21 21 20 20 19 18 18 18 19 20 20 21 22 21 19
43 45 45 45 44 43 42 39 36 33 30 28 25 24 23 24 24 24 24 24 23 23 23 23 22 22 22 21 21 21 20 19 18 19 20 20 20 20 20 20 18 16
44 45 44 43 43 42 40 38 35 32 30 28 25 24 24 25 25 25 25 24 23 23 23 22 22 22 22 22 22 21 20 19 19 19 20 21 20 20 19 18 17 17
40 40 40 40 39 39 38 36 34 31 30 27 25 25 25 25 25 25 24 23 23 23 23 23 23 23 23 22 21 21 20 20 19 20 21 21 21 20 19 18 19 18
35 36 36 37 37 37 36 34 32 31 29 27 25 25 25 25 25 24 24 23 23 23 23 23 23 23 22 22 21 21 20 19 19 20 21 21 21 21 21 21 20 19
33 33 34 34 35 35 34 32 31 29 28 26 25 25 25 25 24 24 24 23 23 23 24 24 24 23 22 21 19 18 18 18 19 20 20 20 21 22 22 23 21 19
31 31 31 32 33 32 32 30 29 28 26 26 25 25 25 25 24 24 24 24 24 24 24 24 23 22 21 20 18 16 17 18 20 21 20 20 21 21 21 22 21 21
28 28 28 29 30 30 29 28 27 26 25 25 25 25 25 24 24 24 24 24 24 24 24 24 23 21 21 19 17 16 17 18 20 21 21 20 20 21 21 21 22 21
25 25 26 27 27 27 26 25 25 24 24 24 24 24 24 24 24 24 24 24 25 25 24 23 22 21 20 19 17 17 18 18 20 20 20 19 19 19 19 20 20 20
23 24 25 25 25 24 23 23 23 22 22 23 23 23 24 24 24 24 25 25 25 24 24 23 21 20 20 19 17 17 18 18 19 19 18 18 18 18 18 19 19 19
22 23 23 22 21 21 21 21 21 21 21 22 22 23 23 23 24 24 25 25 25 24 23 22 21 19 19 17 16 17 17 17 18 19 19 20 20 21 21 20 20 21
20 20 19 19 19 19 19 19 20 20 21 22 22 23 23 24 24 25 24 24 24 23 22 21 20 19 18 17 16 16 16 17 18 19 19 20 20 20 20 19 20 20
16 16 16 16 16 17 17 18 20 21 22 22 23 23 23 24 24 24 24 24 23 22 21 20 20 19 19 18 16 16 16 17 18 17 18 18 19 18 19 19 20 20
12 13 13 13 14 16 17 19 20 21 22 22 22 23 23 22 23 23 24 23 22 21 20 20 20 19 19 18 17 16 16 16 17 17 18 19 19 19 19 18 19 19
10 11 12 13 15 16 18 20 21 21 22 22 22 22 22 22 22 22 23 22 21 21 20 20 20 20 19 18 17 16 16 16 16 17 17 17 17 17 18 18 18 17
Wind_Direction
223 223 223 223 224 224 223 222 221 222 224 226 230 235 236 236 238 241 247 251 254 260 266 274 283 289 291 292 292 289 288 286 285 284 284 287 288 290 290 286 284 287
222 222 222 222 222 221 221 222 222 222 223 224 227 230 230 231 234 238 244 247 250 254 261 269 277 283 286 288 289 289 290 291 291 290 291 295 297 299 299 291 282 279
220 220 220 220 221 220 220 220 221 222 220 219 221 224 227 229 233 237 242 245 247 251 255 262 269 275 279 281 282 283 286 288 291 293 297 302 306 308 308 300 287 281
219 219 220 221 222 221 220 218 218 217 215 215 219 222 226 228 231 234 238 241 243 246 250 256 262 267 271 273 275 276 279 283 287 290 294 300 305 308 309 306 297 291
218 219 220 221 221 220 218 218 218 216 214 216 219 221 223 225 228 231 234 236 239 243 246 251 257 261 264 266 267 270 273 277 280 283 287 293 299 301 304 305 301 298
217 218 219 220 220 219 218 219 220 218 217 218 218 220 222 225 228 230 232 234 236 239 243 247 252 255 258 260 262 265 267 271 274 276 280 286 291 293 297 301 299 296
217 217 218 219 219 218 219 220 220 219 219 219 219 220 222 225 227 230 231 232 233 237 241 246 249 252 254 255 256 259 262 266 269 272 276 282 286 288 290 294 294 292
217 217 217 217 217 217 219 220 220 220 219 218 219 221 223 227 230 230 230 230 231 235 240 244 247 249 250 250 251 255 258 262 266 270 274 278 281 285 288 290 290 287
215 215 216 216 216 216 218 219 220 219 218 218 220 222 224 228 231 231 229 228 230 234 238 242 244 245 246 247 249 253 256 260 264 267 271 275 278 282 287 289 288 286
214 214 214 214 215 216 217 218 219 218 218 219 220 222 225 229 231 231 228 227 229 233 237 239 241 242 242 244 248 252 256 259 263 266 270 274 277 282 286 287 287 286
213 212 213 214 215 216 217 218 218 217 217 218 219 221 225 228 230 229 228 228 229 233 236 238 240 241 240 242 247 251 255 258 262 266 270 274 278 282 285 287 287 285
212 212 213 214 215 216 217 217 216 217 217 218 219 222 224 227 229 229 230 231 232 235 237 238 239 239 239 243 247 250 254 258 262 267 271 275 278 282 286 287 284 279
213 213 214 214 215 215 215 215 215 216 217 218 220 222 225 228 229 231 232 234 235 235 236 238 237 237 239 242 246 250 254 259 264 269 273 276 279 283 286 283 275 270
215 215 215 214 215 214 213 213 214 216 218 219 219 222 226 230 231 233 234 233 234 234 235 236 235 235 238 242 246 251 256 262 267 271 275 278 281 284 282 276 270 267
218 215 214 213 213 212 211 212 214 216 217 218 220 224 228 231 232 233 232 231 231 232 233 233 234 236 240 244 248 253 259 265 271 275 278 279 280 281 277 273 271 267
219 216 213 212 211 210 209 210 212 214 215 217 221 225 227 229 229 228 229 230 230 231 231 232 234 238 241 246 251 257 264 271 275 277 277 276 275 275 273 271 268 264
218 215 212 211 210 209 208 209 211 212 214 217 220 223 224 225 225 226 228 230 231 232 232 233 236 239 243 248 252 255 262 269 272 273 272 270 269 267 267 267 265 265
217 213 211 209 208 207 206 207 209 210 213 216 218 220 221 222 224 226 229 230 232 232 233 235 237 240 245 250 251 251 258 264 267 267 266 264 262 262 264 265 265 267
214 211 208 207 206 206 205 205 207 210 213 216 218 219 220 222 225 227 229 231 231 232 234 236 238 241 247 251 252 255 262 267 267 266 263 260 260 260 261 263 265 266
211 209 207 207 206 204 203 204 207 211 214 216 218 219 221 223 225 228 229 230 232 234 235 237 239 244 251 255 257 261 266 267 265 263 261 260 259 258 259 262 264 262
208 206 205 203 202 200 202 205 208 212 215 217 220 222 225 227 228 230 231 231 233 234 235 237 241 248 256 260 260 263 266 264 262 261 263 263 263 263 265 265 264 263
204 201 198 198 199 200 204 207 210 214 218 220 222 225 227 229 230 231 232 232 233 233 235 239 244 252 259 261 259 261 262 260 260 262 264 265 266 266 267 267 266 267
197 195 195 197 201 205 208 212 216 220 222 223 224 225 226 228 230 231 233 233 232 232 236 242 249 256 263 263 259 259 259 258 260 264 265 265 265 265 265 265 265 264
193 197 202 204 209 214 218 222 224 226 227 227 227 228 229 231 233 233 233 232 233 236 241 248 255 261 267 266 260 255 255 258 262 264 263 263 263 263 264 264 263 263
200 209 215 219 224 228 230 232 231 230 230 230 230 232 233 235 235 234 233 234 236 241 246 253 260 265 269 267 258 252 255 259 263 263 262 263 265 266 266 265 264 263
219 227 233 236 238 240 239 238 235 233 232 231 232 233 234 235 234 233 235 236 239 245 250 256 262 267 269 265 255 250 255 259 261 262 261 263 265 266 266 266 266 266